Location: Unspecified
(0.0000°N, 0.0000°E)
Time: 12:27:56
(UTC+00:00)

Vanguard 1 Rocket - All Passes

Search period start: 02 October 2014 00:00
Search period end: 12 October 2014 00:00
Orbit: 653 x 4227 km, 34.3° (Epoch: 28 September)

Date Brightness Start Highest point End Pass type
(mag) Time Alt. Az. Time Alt. Az. Time Alt. Az.
02 Oct - 00:00:00 26° SE 23:59:45 27° SE 00:06:48 10° ESE night (unlit)
02 Oct - 02:07:10 10° SW 02:26:04 73° SE 02:35:19 10° ENE visible
02 Oct - 04:43:05 10° W 04:52:21 27° NW 04:58:06 10° NNE visible
02 Oct - 12:14:37 10° N 12:19:17 18° NE 12:25:49 10° E daylight
02 Oct - 14:36:03 10° NW 14:45:07 87° NE 15:03:50 10° SE daylight
02 Oct - 17:03:11 10° W 17:16:16 39° SSW 17:37:47 10° SE daylight
02 Oct - 19:38:35 10° SW 19:55:00 23° S 20:13:29 10° SE visible
02 Oct - 22:17:33 10° SW 22:37:25 26° SSE 22:52:32 10° ESE visible
03 Oct - 00:51:56 10° SW 01:13:03 52° SSE 01:24:22 10° ENE visible
03 Oct - 03:26:37 10° WSW 03:41:37 54° NW 03:49:17 10° NE visible
03 Oct - 13:26:23 10° NW 13:33:44 53° NE 13:48:01 10° ESE daylight
03 Oct - 15:51:11 10° WNW 16:02:03 51° SSW 16:22:33 10° SE daylight
03 Oct - 18:22:44 10° WSW 18:37:23 26° SSW 18:57:00 10° SE visible
03 Oct - 21:01:16 10° SW 21:19:42 23° S 21:36:27 10° SE visible
03 Oct - 23:36:43 10° SW 23:58:41 39° SSE 00:12:16 10° E visible
04 Oct - 02:10:42 10° SW 02:30:07 88° NW 02:39:33 10° NE visible
04 Oct - 04:48:51 10° W 04:56:09 19° NW 05:01:12 10° N visible
04 Oct - 12:17:39 10° N 12:23:05 25° NE 12:31:40 10° E daylight
04 Oct - 14:40:18 10° WNW 14:49:11 73° SW 15:07:22 10° SE daylight
04 Oct - 17:08:38 10° WSW 17:21:17 31° SSW 17:41:04 10° SE daylight
04 Oct - 19:44:51 10° SW 20:01:12 22° S 20:19:00 10° SE visible
04 Oct - 22:21:27 10° SW 22:42:53 31° SSE 22:58:36 10° ESE visible
05 Oct - 00:55:09 10° SW 01:17:25 65° SSE 01:28:59 10° ENE visible
05 Oct - 03:31:10 10° WSW 03:45:18 40° NW 03:52:59 10° NNE visible
05 Oct - 13:30:17 10° NW 13:37:32 72° NE 13:52:10 10° ESE daylight
05 Oct - 15:56:07 10° W 16:06:42 40° SSW 16:25:40 10° SE daylight
05 Oct - 18:29:02 10° SW 18:43:11 23° S 19:01:22 10° SE visible
05 Oct - 21:06:05 10° SW 21:25:40 25° SSE 21:42:56 10° ESE visible
05 Oct - 23:39:56 10° SW 00:03:23 48° SSE 00:17:21 10° E visible
06 Oct - 02:14:30 10° WSW 02:33:56 70° NW 02:43:35 10° NE visible
06 Oct - 04:55:47 10° WNW 05:00:06 13° NW 05:03:35 10° NNW visible
06 Oct - 12:21:05 10° NNW 12:26:50 36° NE 12:36:46 10° ESE daylight
06 Oct - 14:44:48 10° WNW 14:53:29 55° SSW 15:10:42 10° SE daylight
06 Oct - 17:14:29 10° WSW 17:26:35 26° SSW 17:44:33 10° SE daylight
06 Oct - 19:50:38 10° SW 20:07:27 22° S 20:25:12 10° SE visible
06 Oct - 22:25:00 10° SW 22:48:00 37° SSE 23:04:18 10° E visible
07 Oct - 00:58:31 10° SW 01:21:31 81° SE 01:33:20 10° ENE visible
07 Oct - 03:36:15 10° W 03:48:59 30° NW 03:56:29 10° NNE visible
07 Oct - 11:13:20 10° N 11:16:27 14° NE 11:20:22 10° ENE daylight
07 Oct - 13:34:24 10° NW 13:41:31 84° SW 13:55:59 10° SE daylight
07 Oct - 16:01:24 10° WSW 16:11:36 32° SSW 16:28:47 10° SE daylight
07 Oct - 18:35:20 10° SW 18:49:14 21° S 19:06:28 10° SE visible
07 Oct - 21:10:19 10° SW 21:31:19 29° SSE 21:49:16 10° ESE visible
07 Oct - 23:43:10 10° SW 00:07:47 59° SSE 00:22:07 10° ENE visible
08 Oct - 02:18:39 10° WSW 02:37:37 55° NW 02:47:25 10° NE visible
08 Oct - 12:24:47 10° NW 12:30:37 53° NE 12:41:20 10° ESE daylight
08 Oct - 14:49:36 10° W 14:58:03 41° SSW 15:13:51 10° SE daylight
08 Oct - 17:20:40 10° SW 17:32:11 22° S 17:48:25 10° SE daylight
08 Oct - 19:55:46 10° SW 20:13:32 24° SSE 20:31:49 10° ESE visible
08 Oct - 22:28:23 10° SW 22:52:46 45° SSE 23:09:36 10° E visible
09 Oct - 01:02:05 10° SW 01:25:22 83° NW 01:37:27 10° NE visible
09 Oct - 03:42:00 10° W 03:52:47 23° NW 03:59:44 10° N visible
09 Oct - 11:16:07 10° N 11:20:20 23° NE 11:26:21 10° E daylight
09 Oct - 13:38:47 10° WNW 13:45:44 61° SSW 13:59:30 10° SE daylight
09 Oct - 16:07:07 10° WSW 16:16:46 25° SSW 16:31:57 10° SSE daylight
09 Oct - 18:41:18 10° SW 18:55:24 20° S 19:12:23 10° SE visible
09 Oct - 21:14:07 10° SW 21:36:33 34° SSE 21:55:16 10° E visible
09 Oct - 23:46:28 10° SW 00:11:55 72° SE 00:26:35 10° ENE visible
10 Oct - 02:23:15 10° WSW 02:41:14 43° NW 02:51:05 10° NNE visible
10 Oct - 12:28:45 10° NW 12:34:32 79° NE 12:45:28 10° SE daylight
10 Oct - 14:54:46 10° W 15:02:52 31° SSW 15:16:53 10° SE daylight
10 Oct - 17:27:00 10° SW 17:38:03 19° S 17:52:54 10° SE daylight
10 Oct - 20:00:16 10° SSW 20:19:18 27° SSE 20:38:28 10° ESE visible
10 Oct - 22:31:42 10° SW 22:57:13 54° SSE 23:14:32 10° ENE visible
11 Oct - 01:05:57 10° WSW 01:29:04 68° NW 01:41:23 10° NE visible
11 Oct - 03:48:37 10° WNW 03:56:46 17° NW 04:02:39 10° N visible
11 Oct - 11:19:30 10° NNW 11:24:10 35° NE 11:31:26 10° ESE daylight
11 Oct - 13:43:27 10° W 13:50:13 43° SSW 14:02:47 10° SE daylight
11 Oct - 16:13:14 10° SW 16:22:11 20° S 16:35:17 10° SSE daylight
11 Oct - 18:46:40 10° SSW 19:01:30 21° SSE 19:19:00 10° SE visible
11 Oct - 21:17:41 10° SW 21:41:23 41° SSE 22:00:51 10° E visible
11 Oct - 23:49:55 10° SW 00:00:00 31° SW 00:00:00 31° SW visible
